Volver al catálogo

STARLINK-4523

ActivoComunicacionesVLEO
NORAD 53389·PAYLOAD·🇺🇸 United States

Lanzado Aug 10, 2022 desde Cape Canaveral Space Force Station

Loading…

Próximos Pases (próximas 24 horas)

TLE

ActualizadoSource: CelesTrak SupGP

Época: Sep 15, 2026, 01:59 UTC

1 53389C 22097B   26258.08312500  .00041558  00000+0  11892-2 0  2583
2 53389  53.1612 347.2054 0001017  85.1118  81.6712 15.35374003    13

Sigue STARLINK-4523 en tiempo real con AllMySat

Download on the App Store